,,,PA_Meas_PMT16A,,PR_Meas_QMR101_102,,RH_Meas_QMH101,,SR_Meas_QMS101,,TA_Meas_QMH101,,GenWind,,GenWind,
date,time,status,PA,status,PR,status,RH,status,SR,status,TA,status,DirAvg,status,SpdAvg,
2009-09-11, 00:00:04,VALID,1000.73,VALID,0,VALID,80.0271,VALID,0,VALID,25.0693,VALID,192,VALID,0.84375,
2009-09-11, 00:01:04,VALID,1000.69,VALID,0,VALID,79.9126,VALID,0,VALID,25.0674,VALID,212,VALID,0.65,
2009-09-11, 00:02:04,VALID,1000.67,VALID,0,VALID,79.8821,VALID,0,VALID,25.0674,VALID,206,VALID,0.871484,
2009-09-11, 00:03:04,VALID,1000.66,VALID,0,VALID,79.8898,VALID,0,VALID,25.0674,VALID,202,VALID,0.602344,
2009-09-11, 00:04:04,VALID,1000.68,VALID,0,VALID,79.9584,VALID,0,VALID,25.0284,VALID,202,VALID,1.12617,
2009-09-11, 00:05:04,VALID,1000.66,VALID,0,VALID,79.8287,VALID,0,VALID,25.0284,VALID,176,VALID,1.20313,
2009-09-11, 00:06:04,VALID,1000.67,VALID,0,VALID,79.76,VALID,0,VALID,25.0069,VALID,171,VALID,1.10312,
2009-09-11, 00:07:04,VALID,1000.63,VALID,0,VALID,79.7066,VALID,0,VALID,25.0479,VALID,178,VALID,1.21406,
2009-09-11, 00:08:04,VALID,1000.61,VALID,0,VALID,79.7143,VALID,0,VALID,25.0479,VALID,177,VALID,1.70664,
2009-09-11, 00:09:04,VALID,1000.61,VALID,0,VALID,79.7524,VALID,0,VALID,25.0284,VALID,174,VALID,1.46328,
2009-09-11, 00:10:04,VALID,1000.59,VALID,0,VALID,79.7753,VALID,0,VALID,25.0284,VALID,176,VALID,1.44609,
2009-09-11, 00:11:04,VALID,1000.55,VALID,0,VALID,79.7448,VALID,0,VALID,25.0284,VALID,169,VALID,1.51016,
2009-09-11, 00:12:04,VALID,1000.53,VALID,0,VALID,79.6685,VALID,0,VALID,25.0479,VALID,177,VALID,1.40742,
2009-09-11, 00:13:04,VALID,1000.54,VALID,0,VALID,79.7906,VALID,0,VALID,25.0284,VALID,179,VALID,1.38867,
2009-09-11, 00:14:04,VALID,1000.54,VALID,0,VALID,79.8898,VALID,0,VALID,25.0498,VALID,170,VALID,1.30508,
2009-09-11, 00:15:04,VALID,1000.56,VALID,0,VALID,79.8974,VALID,0,VALID,25.0284,VALID,175,VALID,1.16133,
2009-09-11, 00:16:04,VALID,1000.52,VALID,0,VALID,79.9813,VALID,0,VALID,25.0284,VALID,183,VALID,1.07227,
2009-09-11, 00:17:04,VALID,1000.5,VALID,0,VALID,80.2178,VALID,0,VALID,25.0479,VALID,178,VALID,1.56133,
2009-09-11, 00:18:04,VALID,1000.52,VALID,0,VALID,79.8974,VALID,0,VALID,25.1083,VALID,181,VALID,1.01563,
2009-09-11, 00:19:04,VALID,1000.52,VALID,0,VALID,79.7448,VALID,0,VALID,25.0869,VALID,199,VALID,1.03672,
2009-09-11, 00:20:04,VALID,1000.51,VALID,0,VALID,79.7982,VALID,0,VALID,25.1064,VALID,178,VALID,1.31641,
2009-09-11, 00:21:04,VALID,1000.5,VALID,0,VALID,79.9279,VALID,0,VALID,25.1064,VALID,183,VALID,1.21328,
2009-09-11, 00:22:04,VALID,1000.48,VALID,0,VALID,80.1644,VALID,0,VALID,25.0869,VALID,153,VALID,1.58398,
2009-09-11, 00:23:04,VALID,1000.49,VALID,0,VALID,80.2483,VALID,0,VALID,25.0479,VALID,162,VALID,1.26289,
2009-09-11, 00:24:04,VALID,1000.46,VALID,0,VALID,80.3018,VALID,0,VALID,25.0284,VALID,172,VALID,1.31914,
2009-09-11, 00:25:04,VALID,1000.47,VALID,0,VALID,80.5001,VALID,0,VALID,24.9893,VALID,164,VALID,1.19297,
2009-09-11, 00:26:04,VALID,1000.44,VALID,0,VALID,80.6146,VALID,0,VALID,24.9698,VALID,165,VALID,1.23164,
2009-09-11, 00:27:04,VALID,1000.47,VALID,0,VALID,80.6756,VALID,0,VALID,24.9308,VALID,161,VALID,1.08633,
2009-09-11, 00:28:04,VALID,1000.46,VALID,0,VALID,80.8206,VALID,0,VALID,24.8898,VALID,164,VALID,1.33633,
2009-09-11, 00:29:04,VALID,1000.45,VALID,0,VALID,80.6832,VALID,0,VALID,24.8898,VALID,165,VALID,1.30195,
2009-09-11, 00:30:04,VALID,1000.43,VALID,0,VALID,80.6069,VALID,0,VALID,24.8898,VALID,172,VALID,0.967188,
2009-09-11, 00:31:04,VALID,1000.44,VALID,0,VALID,80.6222,VALID,0,VALID,24.9112,VALID,176,VALID,1.05859,
2009-09-11, 00:32:04,VALID,1000.45,VALID,0,VALID,80.462,VALID,0,VALID,24.9093,VALID,171,VALID,0.774219,
2009-09-11, 00:33:04,VALID,1000.41,VALID,0,VALID,80.668,VALID,0,VALID,24.8898,VALID,174,VALID,0.938281,
2009-09-11, 00:34:04,VALID,1000.38,VALID,0,VALID,80.6451,VALID,0.112286,VALID,24.9093,VALID,184,VALID,0.641406,
2009-09-11, 00:35:04,VALID,1000.36,VALID,0,VALID,80.7748,VALID,0,VALID,24.8703,VALID,167,VALID,0.985937,
2009-09-11, 00:36:04,VALID,1000.34,VALID,0,VALID,80.9808,VALID,0,VALID,24.8722,VALID,169,VALID,0.941406,
2009-09-11, 00:37:04,VALID,1000.33,VALID,0,VALID,81.0571,VALID,0,VALID,24.8527,VALID,166,VALID,0.717969,
2009-09-11, 00:38:04,VALID,1000.34,VALID,0,VALID,81.1868,VALID,0,VALID,24.7727,VALID,170,VALID,0.737891,
2009-09-11, 00:39:04,VALID,1000.3,VALID,0,VALID,81.4309,VALID,0,VALID,24.7532,VALID,175,VALID,0.851563,
2009-09-11, 00:40:04,VALID,1000.3,VALID,0,VALID,81.7132,VALID,0,VALID,24.7337,VALID,184,VALID,1.11133,
2009-09-11, 00:41:04,VALID,1000.28,VALID,0,VALID,81.7361,VALID,0,VALID,24.7532,VALID,184,VALID,1.27148,
2009-09-11, 00:42:04,VALID,1000.3,VALID,0,VALID,81.7132,VALID,0,VALID,24.7922,VALID,185,VALID,1.02578,
2009-09-11, 00:43:04,VALID,1000.28,VALID,0,VALID,81.7132,VALID,0.112286,VALID,24.8313,VALID,183,VALID,1.07695,
2009-09-11, 00:44:04,VALID,1000.24,VALID,0,VALID,81.8811,VALID,0,VALID,24.8508,VALID,186,VALID,1.38984,
2009-09-11, 00:45:04,VALID,1000.21,VALID,0,VALID,81.7132,VALID,0.112286,VALID,24.8703,VALID,171,VALID,1.18594,
2009-09-11, 00:46:04,VALID,1000.22,VALID,0,VALID,81.5835,VALID,0,VALID,24.8898,VALID,188,VALID,1.10977,
2009-09-11, 00:47:04,VALID,1000.23,VALID,0,VALID,81.5072,VALID,0.112286,VALID,24.9093,VALID,190,VALID,1.24883,
2009-09-11, 00:48:04,VALID,1000.22,VALID,0,VALID,81.3012,VALID,0,VALID,24.9289,VALID,185,VALID,1.04922,
2009-09-11, 00:49:04,VALID,1000.24,VALID,0,VALID,81.1563,VALID,0.112286,VALID,24.9093,VALID,218,VALID,0.444531,
2009-09-11, 00:50:04,VALID,1000.23,VALID,0,VALID,81.4004,VALID,0.112286,VALID,24.8508,VALID,172,VALID,0.848828,
2009-09-11, 00:51:04,VALID,1000.22,VALID,0,VALID,81.286,VALID,0.112286,VALID,24.8508,VALID,187,VALID,0.887891,
2009-09-11, 00:52:04,VALID,1000.22,VALID,0,VALID,81.4309,VALID,0.112286,VALID,24.8313,VALID,178,VALID,1.0375,
2009-09-11, 00:53:04,VALID,1000.25,VALID,0,VALID,81.6598,VALID,0,VALID,24.8117,VALID,164,VALID,1.2043,
2009-09-11, 00:54:04,VALID,1000.23,VALID,0,VALID,81.6751,VALID,0.112286,VALID,24.8313,VALID,163,VALID,1.49414,
2009-09-11, 00:55:04,VALID,1000.2,VALID,0,VALID,81.5149,VALID,0.112286,VALID,24.8508,VALID,160,VALID,1.42539,
2009-09-11, 00:56:04,VALID,1000.22,VALID,0,VALID,81.4004,VALID,0.224572,VALID,24.8508,VALID,172,VALID,1.13672,
2009-09-11, 00:57:04,VALID,1000.2,VALID,0,VALID,81.492,VALID,0.112286,VALID,24.8508,VALID,164,VALID,1.43242,
2009-09-11, 00:58:04,VALID,1000.2,VALID,0,VALID,81.3546,VALID,0,VALID,24.8527,VALID,168,VALID,1.3125,
2009-09-11, 00:59:04,VALID,1000.2,VALID,0,VALID,81.5759,VALID,0,VALID,24.8527,VALID,175,VALID,1.43672,
2009-09-11, 01:00:04,VALID,1000.18,VALID,0,VALID,81.4767,VALID,0,VALID,24.8313,VALID,169,VALID,1.39453,
2009-09-11, 01:01:04,VALID,1000.19,VALID,0,VALID,81.3623,VALID,0,VALID,24.8527,VALID,162,VALID,1.62266,
2009-09-11, 01:02:04,VALID,1000.18,VALID,0,VALID,81.3241,VALID,0,VALID,24.8313,VALID,176,VALID,1.70938,
2009-09-11, 01:03:04,VALID,1000.17,VALID,0,VALID,81.347,VALID,0,VALID,24.8527,VALID,151,VALID,1.59297,
2009-09-11, 01:04:04,VALID,1000.18,VALID,0,VALID,81.3012,VALID,0,VALID,24.8313,VALID,155,VALID,1.69453,
2009-09-11, 01:05:04,VALID,1000.17,VALID,0,VALID,81.3852,VALID,0,VALID,24.8117,VALID,148,VALID,1.57227,
2009-09-11, 01:06:04,VALID,1000.16,VALID,0,VALID,81.7285,VALID,0,VALID,24.7941,VALID,172,VALID,1.65234,
2009-09-11, 01:07:04,VALID,1000.18,VALID,0,VALID,81.7361,VALID,0,VALID,24.7922,VALID,173,VALID,1.79766,
2009-09-11, 01:08:04,VALID,1000.19,VALID,0,VALID,81.7285,VALID,0,VALID,24.7941,VALID,175,VALID,1.71797,
2009-09-11, 01:09:04,VALID,1000.17,VALID,0,VALID,81.5988,VALID,0,VALID,24.8136,VALID,173,VALID,2.23086,
2009-09-11, 01:10:04,VALID,1000.18,VALID,0,VALID,81.3775,VALID,0,VALID,24.8527,VALID,169,VALID,2.36719,
2009-09-11, 01:11:04,VALID,1000.18,VALID,0,VALID,81.0876,VALID,0,VALID,24.8722,VALID,172,VALID,2.23125,
2009-09-11, 01:12:04,VALID,1000.18,VALID,0,VALID,80.9579,VALID,0,VALID,24.8917,VALID,163,VALID,2.34609,
2009-09-11, 01:13:04,VALID,1000.16,VALID,0,VALID,81.0418,VALID,0,VALID,24.8508,VALID,170,VALID,1.88398,
2009-09-11, 01:14:04,VALID,1000.14,VALID,0,VALID,81.2555,VALID,0,VALID,24.8527,VALID,175,VALID,2.0875,
2009-09-11, 01:15:04,VALID,1000.12,VALID,0,VALID,81.1181,VALID,0,VALID,24.8527,VALID,176,VALID,1.775,
2009-09-11, 01:16:04,VALID,1000.12,VALID,0,VALID,81.1792,VALID,0,VALID,24.8527,VALID,179,VALID,2.28008,
2009-09-11, 01:17:04,VALID,1000.1,VALID,0,VALID,80.9503,VALID,0,VALID,24.8722,VALID,180,VALID,2.13125,
2009-09-11, 01:18:04,VALID,1000.12,VALID,0,VALID,80.7595,VALID,0,VALID,24.9112,VALID,186,VALID,1.45898,
2009-09-11, 01:19:04,VALID,1000.14,VALID,0,VALID,80.6603,VALID,0,VALID,24.8917,VALID,177,VALID,2.32461,
2009-09-11, 01:20:04,VALID,1000.13,VALID,0,VALID,80.5993,VALID,0,VALID,24.8917,VALID,175,VALID,2.07773,
2009-09-11, 01:21:04,VALID,1000.11,VALID,0,VALID,80.5764,VALID,0,VALID,24.8722,VALID,172,VALID,2.20039,
2009-09-11, 01:22:04,VALID,1000.12,VALID,0,VALID,80.5535,VALID,0,VALID,24.8917,VALID,168,VALID,1.66719,
2009-09-11, 01:23:04,VALID,1000.13,VALID,0,VALID,80.5612,VALID,0,VALID,24.8508,VALID,177,VALID,2.08633,
2009-09-11, 01:24:04,VALID,1000.1,VALID,0,VALID,80.4849,VALID,0,VALID,24.8722,VALID,181,VALID,2.31094,
2009-09-11, 01:25:04,VALID,1000.1,VALID,0,VALID,80.4009,VALID,0,VALID,24.8703,VALID,157,VALID,2.64922,
2009-09-11, 01:26:04,VALID,1000.1,VALID,0,VALID,80.3704,VALID,0,VALID,24.8722,VALID,179,VALID,2.60977,
2009-09-11, 01:27:04,VALID,1000.12,VALID,0,VALID,80.2789,VALID,0,VALID,24.8703,VALID,173,VALID,2.21992,
2009-09-11, 01:28:04,VALID,1000.11,VALID,0,VALID,80.3018,VALID,0,VALID,24.8917,VALID,163,VALID,2.11562,
2009-09-11, 01:29:04,VALID,1000.12,VALID,0,VALID,80.3628,VALID,0,VALID,24.8722,VALID,163,VALID,2.52422,
2009-09-11, 01:30:04,VALID,1000.11,VALID,0,VALID,80.4849,VALID,0,VALID,24.8527,VALID,168,VALID,2.0793,
2009-09-11, 01:31:04,VALID,1000.09,VALID,0,VALID,80.2636,VALID,0,VALID,24.8313,VALID,157,VALID,1.86172,
2009-09-11, 01:32:04,VALID,1000.11,VALID,0,VALID,80.3475,VALID,0,VALID,24.8527,VALID,163,VALID,1.79141,
2009-09-11, 01:33:04,VALID,1000.04,VALID,0,VALID,80.2789,VALID,0,VALID,24.8117,VALID,147,VALID,1.66484,
2009-09-11, 01:34:04,VALID,1000.06,VALID,0,VALID,80.3704,VALID,0,VALID,24.8117,VALID,166,VALID,1.88125,
2009-09-11, 01:35:04,VALID,1000.06,VALID,0,VALID,80.462,VALID,0,VALID,24.8332,VALID,169,VALID,2.40313,
2009-09-11, 01:36:04,VALID,1000.07,VALID,0,VALID,80.2483,VALID,0,VALID,24.8332,VALID,161,VALID,1.75625,
2009-09-11, 01:37:04,VALID,1000.07,VALID,0,VALID,80.1568,VALID,0,VALID,24.8527,VALID,156,VALID,1.54492,
2009-09-11, 01:38:04,VALID,1000.05,VALID,0,VALID,80.1721,VALID,0,VALID,24.8136,VALID,155,VALID,1.42813,
2009-09-11, 01:39:04,VALID,1000.06,VALID,0,VALID,80.2483,VALID,0,VALID,24.8332,VALID,166,VALID,2.12734,
2009-09-11, 01:40:04,VALID,1000.05,VALID,0,VALID,80.1797,VALID,0,VALID,24.8332,VALID,170,VALID,1.49023,
2009-09-11, 01:41:04,VALID,1000.03,VALID,0,VALID,79.8516,VALID,0,VALID,24.8722,VALID,153,VALID,2.47148,
2009-09-11, 01:42:04,VALID,1000.06,VALID,0,VALID,79.844,VALID,0,VALID,24.8917,VALID,178,VALID,1.83789,
2009-09-11, 01:43:04,VALID,1000.02,VALID,0,VALID,79.6532,VALID,0,VALID,24.8898,VALID,177,VALID,2.6332,
2009-09-11, 01:44:04,VALID,1000.03,VALID,0,VALID,79.4854,VALID,0,VALID,24.9289,VALID,182,VALID,1.53516,
2009-09-11, 01:45:04,VALID,1000.05,VALID,0,VALID,79.3023,VALID,0,VALID,24.9679,VALID,167,VALID,2.39102,
2009-09-11, 01:46:04,VALID,1000.02,VALID,0,VALID,79.3862,VALID,0,VALID,24.9484,VALID,166,VALID,1.75391,
2009-09-11, 01:47:04,VALID,1000,VALID,0,VALID,79.4243,VALID,0,VALID,24.9289,VALID,175,VALID,2.13867,
2009-09-11, 01:48:04,VALID,1000.01,VALID,0,VALID,79.3786,VALID,0.112286,VALID,24.9484,VALID,186,VALID,1.9793,
2009-09-11, 01:49:04,VALID,1000.01,VALID,0,VALID,79.1649,VALID,0,VALID,24.9679,VALID,168,VALID,2.72734,
2009-09-11, 01:50:04,VALID,999.997,VALID,0,VALID,79.2336,VALID,0,VALID,24.9484,VALID,167,VALID,2.43438,
2009-09-11, 01:51:04,VALID,1000.01,VALID,0,VALID,79.226,VALID,0,VALID,24.9698,VALID,176,VALID,2.38359,
2009-09-11, 01:52:04,VALID,1000.03,VALID,0,VALID,79.0963,VALID,0,VALID,24.9679,VALID,175,VALID,2.70586,
2009-09-11, 01:53:04,VALID,999.989,VALID,0,VALID,79.0276,VALID,0,VALID,24.9874,VALID,196,VALID,2.25156,
2009-09-11, 01:54:04,VALID,1000.03,VALID,0,VALID,78.875,VALID,0,VALID,25.0069,VALID,184,VALID,2.36445,
2009-09-11, 01:55:04,VALID,1000.04,VALID,0,VALID,78.6614,VALID,0,VALID,25.0479,VALID,189,VALID,2.76719,
2009-09-11, 01:56:04,VALID,1000.08,VALID,0,VALID,78.5393,VALID,0,VALID,25.0674,VALID,180,VALID,2.60195,
2009-09-11, 01:57:04,VALID,1000.1,VALID,0,VALID,78.6461,VALID,0,VALID,25.046,VALID,181,VALID,1.64883,
2009-09-11, 01:58:04,VALID,1000.1,VALID,0,VALID,78.6156,VALID,0,VALID,25.0088,VALID,199,VALID,2.06055,
2009-09-11, 01:59:04,VALID,1000.14,VALID,0,VALID,79.081,VALID,0,VALID,24.9308,VALID,212,VALID,1.81445,
2009-09-11, 02:00:04,VALID,1000.16,VALID,0,VALID,79.2641,VALID,0,VALID,24.8722,VALID,222,VALID,1.66758,
2009-09-11, 02:01:04,VALID,1000.17,VALID,0,VALID,79.3786,VALID,0,VALID,24.8136,VALID,194,VALID,2.21484,
2009-09-11, 02:02:04,VALID,1000.14,VALID,0,VALID,79.5846,VALID,0,VALID,24.7765,VALID,207,VALID,1.70664,
2009-09-11, 02:03:04,VALID,1000.13,VALID,0,VALID,79.6914,VALID,0,VALID,24.6965,VALID,199,VALID,1.22578,
2009-09-11, 02:04:04,VALID,1000.13,VALID,0,VALID,80.0118,VALID,0,VALID,24.638,VALID,203,VALID,1.21836,
2009-09-11, 02:05:04,VALID,1000.1,VALID,0,VALID,79.8516,VALID,0,VALID,24.6008,VALID,208,VALID,1.83047,
2009-09-11, 02:06:04,VALID,1000.1,VALID,0,VALID,79.9508,VALID,0,VALID,24.5404,VALID,204,VALID,1.6125,
2009-09-11, 02:07:04,VALID,1000.13,VALID,0,VALID,79.7677,VALID,0,VALID,24.5013,VALID,204,VALID,1.62539,
2009-09-11, 02:08:04,VALID,1000.13,VALID,0,VALID,79.844,VALID,0,VALID,24.4818,VALID,201,VALID,1.94883,
2009-09-11, 02:09:04,VALID,1000.13,VALID,0,VALID,79.8135,VALID,0,VALID,24.4818,VALID,197,VALID,2.04531,
2009-09-11, 02:10:04,VALID,1000.1,VALID,0,VALID,79.8745,VALID,0,VALID,24.5013,VALID,194,VALID,1.7582,
2009-09-11, 02:11:04,VALID,1000.08,VALID,0,VALID,79.7448,VALID,0,VALID,24.4818,VALID,204,VALID,2.28711,
2009-09-11, 02:12:04,VALID,1000.1,VALID,0,VALID,80.0042,VALID,0,VALID,24.4837,VALID,198,VALID,2.19727,
2009-09-11, 02:13:04,VALID,1000.08,VALID,0,VALID,80.0423,VALID,0,VALID,24.4604,VALID,192,VALID,2.40625,
2009-09-11, 02:14:04,VALID,1000.1,VALID,0,VALID,80.1568,VALID,0,VALID,24.4409,VALID,196,VALID,2.08828,
2009-09-11, 02:15:04,VALID,1000.09,VALID,0,VALID,80.1644,VALID,0,VALID,24.4409,VALID,196,VALID,2.0832,
2009-09-11, 02:16:04,VALID,1000.09,VALID,0,VALID,80.0881,VALID,0,VALID,24.4409,VALID,191,VALID,2.04453,
2009-09-11, 02:17:04,VALID,1000.1,VALID,0,VALID,80.0576,VALID,0,VALID,24.4604,VALID,197,VALID,1.73828,
2009-09-11, 02:18:04,VALID,1000.11,VALID,0,VALID,80.0805,VALID,0,VALID,24.4409,VALID,202,VALID,2.59883,
2009-09-11, 02:19:04,VALID,1000.11,VALID,0,VALID,80.0042,VALID,0,VALID,24.4604,VALID,188,VALID,1.94844,
2009-09-11, 02:20:04,VALID,1000.11,VALID,0,VALID,80.0881,VALID,0,VALID,24.48,VALID,189,VALID,1.88437,
2009-09-11, 02:21:04,VALID,1000.15,VALID,0,VALID,79.9889,VALID,0,VALID,24.4995,VALID,198,VALID,1.93477,
2009-09-11, 02:22:04,VALID,1000.16,VALID,0,VALID,79.9432,VALID,0,VALID,24.5209,VALID,189,VALID,1.74023,
2009-09-11, 02:23:04,VALID,1000.19,VALID,0,VALID,79.8516,VALID,0,VALID,24.4995,VALID,190,VALID,1.91055,
2009-09-11, 02:24:04,VALID,1000.21,VALID,0,VALID,79.966,VALID,0,VALID,24.4818,VALID,188,VALID,1.99688,
2009-09-11, 02:25:04,VALID,1000.23,VALID,0,VALID,80.0652,VALID,0,VALID,24.4409,VALID,196,VALID,2.16641,
2009-09-11, 02:26:04,VALID,1000.21,VALID,0,VALID,80.0652,VALID,0,VALID,24.4428,VALID,200,VALID,2.45586,
2009-09-11, 02:27:04,VALID,1000.24,VALID,0,VALID,80.1339,VALID,0,VALID,24.4214,VALID,192,VALID,2.0707,
2009-09-11, 02:28:04,VALID,1000.24,VALID,0,VALID,80.0347,VALID,0,VALID,24.4233,VALID,190,VALID,1.90234,
2009-09-11, 02:29:04,VALID,1000.23,VALID,0,VALID,79.9203,VALID,0,VALID,24.4233,VALID,197,VALID,2.49453,
2009-09-11, 02:30:04,VALID,1000.23,VALID,0,VALID,79.8898,VALID,0,VALID,24.4428,VALID,195,VALID,1.98945,
2009-09-11, 02:31:04,VALID,1000.25,VALID,0,VALID,79.6761,VALID,0,VALID,24.4642,VALID,198,VALID,1.84805,
2009-09-11, 02:32:04,VALID,1000.25,VALID,0,VALID,79.699,VALID,0,VALID,24.4818,VALID,195,VALID,1.78555,
2009-09-11, 02:33:04,VALID,1000.24,VALID,0,VALID,79.4778,VALID,0,VALID,24.5013,VALID,194,VALID,2.17344,
2009-09-11, 02:34:04,VALID,1000.22,VALID,0,VALID,79.3633,VALID,0,VALID,24.4818,VALID,186,VALID,2.0707,
2009-09-11, 02:35:04,VALID,1000.22,VALID,0,VALID,79.2107,VALID,0,VALID,24.5209,VALID,192,VALID,2.22891,
2009-09-11, 02:36:04,VALID,1000.2,VALID,0,VALID,79.1726,VALID,0,VALID,24.5013,VALID,194,VALID,2.55977,
2009-09-11, 02:37:04,VALID,1000.22,VALID,0,VALID,79.3023,VALID,0,VALID,24.5013,VALID,187,VALID,2.26641,
2009-09-11, 02:38:04,VALID,1000.22,VALID,0,VALID,79.1421,VALID,0,VALID,24.5599,VALID,184,VALID,2.46758,
2009-09-11, 02:39:04,VALID,1000.22,VALID,0,VALID,78.7758,VALID,0,VALID,24.6008,VALID,187,VALID,2.49961,
2009-09-11, 02:40:04,VALID,1000.21,VALID,0,VALID,78.8216,VALID,0,VALID,24.5599,VALID,185,VALID,2.89531,
2009-09-11, 02:41:04,VALID,1000.22,VALID,0,VALID,78.8369,VALID,0,VALID,24.5794,VALID,194,VALID,2.275,
2009-09-11, 02:42:04,VALID,1000.24,VALID,0,VALID,78.8063,VALID,0,VALID,24.5404,VALID,185,VALID,2.28203,
2009-09-11, 02:43:04,VALID,1000.23,VALID,0,VALID,78.9284,VALID,0,VALID,24.5209,VALID,191,VALID,2.0293,
2009-09-11, 02:44:04,VALID,1000.23,VALID,0,VALID,78.8216,VALID,0,VALID,24.5404,VALID,189,VALID,2.39648,
2009-09-11, 02:45:04,VALID,1000.24,VALID,0,VALID,78.7911,VALID,0,VALID,24.5599,VALID,190,VALID,2.13047,
2009-09-11, 02:46:04,VALID,1000.27,VALID,0,VALID,78.814,VALID,0,VALID,24.5404,VALID,185,VALID,2.24844,
2009-09-11, 02:47:04,VALID,1000.27,VALID,0,VALID,78.7987,VALID,0,VALID,24.5404,VALID,184,VALID,2.01641,
2009-09-11, 02:48:04,VALID,1000.29,VALID,0,VALID,78.8979,VALID,0,VALID,24.5209,VALID,196,VALID,1.42539,
2009-09-11, 02:49:04,VALID,1000.29,VALID,0,VALID,78.9666,VALID,0,VALID,24.4818,VALID,186,VALID,2.19258,
2009-09-11, 02:50:04,VALID,1000.31,VALID,0,VALID,78.875,VALID,0,VALID,24.5209,VALID,182,VALID,1.63437,
2009-09-11, 02:51:04,VALID,1000.29,VALID,0,VALID,78.8216,VALID,0,VALID,24.5404,VALID,182,VALID,2.05078,
2009-09-11, 02:52:04,VALID,1000.31,VALID,0,VALID,78.814,VALID,0,VALID,24.5599,VALID,188,VALID,1.69883,
2009-09-11, 02:53:04,VALID,1000.31,VALID,0,VALID,78.7987,VALID,0,VALID,24.5813,VALID,174,VALID,2.09414,
2009-09-11, 02:54:04,VALID,1000.28,VALID,0,VALID,78.7072,VALID,0,VALID,24.5794,VALID,175,VALID,2.04492,
2009-09-11, 02:55:04,VALID,1000.26,VALID,0,VALID,78.5775,VALID,0,VALID,24.5989,VALID,168,VALID,2.1332,
2009-09-11, 02:56:04,VALID,1000.24,VALID,0,VALID,78.6385,VALID,0,VALID,24.5989,VALID,165,VALID,2.60859,
2009-09-11, 02:57:04,VALID,1000.3,VALID,0,VALID,78.7453,VALID,0,VALID,24.6008,VALID,170,VALID,1.88867,
2009-09-11, 02:58:04,VALID,1000.25,VALID,0,VALID,78.7911,VALID,0,VALID,24.5599,VALID,181,VALID,1.95117,
2009-09-11, 02:59:04,VALID,1000.23,VALID,0,VALID,78.4478,VALID,0.112286,VALID,24.5385,VALID,178,VALID,2.34805,
2009-09-11, 03:00:04,VALID,1000.26,VALID,0,VALID,78.3638,VALID,0,VALID,24.5775,VALID,162,VALID,2.17422,
2009-09-11, 03:01:04,VALID,1000.25,VALID,0,VALID,78.1655,VALID,0,VALID,24.5775,VALID,170,VALID,2.04336,
2009-09-11, 03:02:04,VALID,1000.25,VALID,0,VALID,78.2189,VALID,0.112286,VALID,24.5794,VALID,165,VALID,2.03516,
2009-09-11, 03:03:04,VALID,1000.24,VALID,0,VALID,78.2112,VALID,0,VALID,24.5794,VALID,169,VALID,2.35938,
2009-09-11, 03:04:04,VALID,1000.24,VALID,0,VALID,78.1426,VALID,0,VALID,24.558,VALID,167,VALID,2.00391,
2009-09-11, 03:05:04,VALID,1000.25,VALID,0,VALID,78.0663,VALID,0,VALID,24.5775,VALID,167,VALID,2.09766,
2009-09-11, 03:06:04,VALID,1000.24,VALID,0,VALID,78.0281,VALID,0,VALID,24.5775,VALID,166,VALID,2.34922,
2009-09-11, 03:07:04,VALID,1000.25,VALID,0,VALID,77.9366,VALID,0,VALID,24.5971,VALID,152,VALID,2.37734,
2009-09-11, 03:08:04,VALID,1000.28,VALID,0,VALID,77.8603,VALID,0,VALID,24.5971,VALID,153,VALID,1.94141,
2009-09-11, 03:09:04,VALID,1000.29,VALID,0,VALID,77.9213,VALID,0,VALID,24.6184,VALID,156,VALID,1.89648,
2009-09-11, 03:10:04,VALID,1000.29,VALID,0,VALID,77.8298,VALID,0,VALID,24.6556,VALID,157,VALID,2.11172,
2009-09-11, 03:11:04,VALID,1000.27,VALID,0,VALID,77.6238,VALID,0,VALID,24.6751,VALID,156,VALID,1.71406,
2009-09-11, 03:12:04,VALID,1000.26,VALID,0,VALID,77.7458,VALID,0,VALID,24.6751,VALID,149,VALID,1.50273,
2009-09-11, 03:13:04,VALID,1000.26,VALID,0,VALID,77.8984,VALID,0,VALID,24.638,VALID,137,VALID,1.70313,
2009-09-11, 03:14:04,VALID,1000.25,VALID,0,VALID,77.8374,VALID,0,VALID,24.6184,VALID,143,VALID,1.63203,
2009-09-11, 03:15:04,VALID,1000.23,VALID,0,VALID,77.9976,VALID,0,VALID,24.5989,VALID,135,VALID,1.85977,
2009-09-11, 03:16:04,VALID,1000.23,VALID,0,VALID,78.196,VALID,0,VALID,24.5599,VALID,131,VALID,1.4668,
2009-09-11, 03:17:04,VALID,1000.24,VALID,0,VALID,78.3486,VALID,0,VALID,24.5209,VALID,139,VALID,2.56797,
2009-09-11, 03:18:04,VALID,1000.26,VALID,0,VALID,78.2952,VALID,0,VALID,24.5209,VALID,166,VALID,1.80391,
2009-09-11, 03:19:04,VALID,1000.24,VALID,0,VALID,78.3104,VALID,0,VALID,24.5209,VALID,153,VALID,1.81289,
2009-09-11, 03:20:04,VALID,1000.27,VALID,0,VALID,78.1349,VALID,0,VALID,24.5618,VALID,165,VALID,1.80938,
2009-09-11, 03:21:04,VALID,1000.27,VALID,0,VALID,78.1044,VALID,0,VALID,24.5618,VALID,167,VALID,1.89609,
2009-09-11, 03:22:04,VALID,1000.31,VALID,0,VALID,77.7382,VALID,0,VALID,24.5794,VALID,165,VALID,2.68203,
2009-09-11, 03:23:04,VALID,1000.32,VALID,0,VALID,77.4025,VALID,0,VALID,24.6789,VALID,153,VALID,1.80156,
2009-09-11, 03:24:04,VALID,1000.32,VALID,0,VALID,77.288,VALID,0,VALID,24.6965,VALID,154,VALID,1.83555,
2009-09-11, 03:25:04,VALID,1000.35,VALID,0,VALID,77.3186,VALID,0,VALID,24.6984,VALID,170,VALID,1.76367,
2009-09-11, 03:26:04,VALID,1000.34,VALID,0,VALID,77.372,VALID,0,VALID,24.6594,VALID,164,VALID,1.6168,
2009-09-11, 03:27:04,VALID,1000.31,VALID,0,VALID,77.6543,VALID,0,VALID,24.6184,VALID,150,VALID,1.58828,
2009-09-11, 03:28:04,VALID,1000.31,VALID,0,VALID,77.8603,VALID,0,VALID,24.5404,VALID,150,VALID,1.22422,
2009-09-11, 03:29:04,VALID,1000.3,VALID,0,VALID,78.0052,VALID,0,VALID,24.4818,VALID,171,VALID,1.4,
2009-09-11, 03:30:04,VALID,1000.3,VALID,0,VALID,78.0968,VALID,0,VALID,24.4642,VALID,179,VALID,1.28984,
2009-09-11, 03:31:04,VALID,1000.26,VALID,0,VALID,78.1655,VALID,0,VALID,24.4037,VALID,175,VALID,0.994141,
2009-09-11, 03:32:04,VALID,1000.27,VALID,0,VALID,78.2646,VALID,0,VALID,24.3647,VALID,177,VALID,1.10781,
2009-09-11, 03:33:04,VALID,1000.26,VALID,0,VALID,78.1197,VALID,0,VALID,24.3647,VALID,178,VALID,1.5418,
2009-09-11, 03:34:04,VALID,1000.31,VALID,0,VALID,78.0739,VALID,0,VALID,24.3647,VALID,174,VALID,1.37344,
2009-09-11, 03:35:04,VALID,1000.32,VALID,0,VALID,78.0739,VALID,0,VALID,24.3257,VALID,159,VALID,1.15508,
2009-09-11, 03:36:04,VALID,1000.33,VALID,0,VALID,78.0281,VALID,0,VALID,24.3062,VALID,161,VALID,1.40547,
2009-09-11, 03:37:04,VALID,1000.3,VALID,0,VALID,77.9747,VALID,0,VALID,24.2866,VALID,154,VALID,1.49258,
2009-09-11, 03:38:04,VALID,1000.35,VALID,0,VALID,78.051,VALID,0,VALID,24.2671,VALID,155,VALID,1.38906,
2009-09-11, 03:39:04,VALID,1000.35,VALID,0,VALID,78.1121,VALID,0,VALID,24.2866,VALID,156,VALID,1.79453,
2009-09-11, 03:40:04,VALID,1000.32,VALID,0,VALID,78.1273,VALID,0,VALID,24.2671,VALID,157,VALID,2.28711,
2009-09-11, 03:41:04,VALID,1000.32,VALID,0,VALID,78.0663,VALID,0,VALID,24.2866,VALID,153,VALID,2.27422,
2009-09-11, 03:42:04,VALID,1000.27,VALID,0,VALID,77.9518,VALID,0,VALID,24.3062,VALID,144,VALID,1.95234,
2009-09-11, 03:43:04,VALID,1000.25,VALID,0,VALID,78.0129,VALID,0,VALID,24.308,VALID,142,VALID,2.01289,
2009-09-11, 03:44:04,VALID,1000.25,VALID,0,VALID,78.1121,VALID,0,VALID,24.2671,VALID,142,VALID,1.61055,
2009-09-11, 03:45:04,VALID,1000.27,VALID,0,VALID,78.2418,VALID,0,VALID,24.2281,VALID,146,VALID,1.91992,